| time (UTC) | temp F | wind direction | speed MPH | gust MPH | rain 1hr in | rain 24hr in | rain mn in | humidity % | barometer mb |
| 20260510054404 | 78 | 36 | 1.0 | 3.0 | 0.00 | 0.00 | 0.00 | 82 | 1013.7 |
| 20260510053905 | 78 | 292 | 0.0 | 1.0 | 0.00 | 0.00 | 0.00 | 83 | 1013.8 |
| 20260510052904 | 77 | 303 | 0.0 | 2.0 | 0.00 | 0.00 | 0.00 | 84 | 1014.0 |
| 20260510052405 | 77 | 294 | 1.0 | 2.0 | 0.00 | 0.00 | 0.00 | 84 | 1014.0 |
| 20260510051904 | 77 | 329 | 0.0 | 1.0 | 0.00 | 0.00 | 0.00 | 85 | 1014.1 |
| 20260510051404 | 77 | 34 | 1.0 | 3.0 | 0.00 | 0.00 | 0.00 | 85 | 1014.0 |
| 20260510050904 | 77 | 42 | 2.0 | 8.0 | 0.00 | 0.00 | 0.00 | 85 | 1014.1 |
| 20260510050404 | 77 | 61 | 2.0 | 3.0 | 0.00 | 0.00 | 0.00 | 85 | 1014.1 |
| 20260510044904 | 77 | 333 | 1.0 | 3.0 | 0.00 | 0.00 | 0.00 | 85 | 1014.1 |
| 20260510044404 | 77 | 55 | 3.0 | 6.0 | 0.00 | 0.00 | 0.00 | 85 | 1014.1 |
| 20260510043904 | 77 | 343 | 1.0 | 3.0 | 0.00 | 0.00 | 0.00 | 86 | 1014.3 |
| 20260510043404 | 76 | 318 | 2.0 | 3.0 | 0.00 | 0.00 | 0.00 | 85 | 1014.3 |
| 20260510042904 | 76 | 42 | 1.0 | 3.0 | 0.00 | 0.00 | 0.00 | 85 | 1014.4 |
| 20260510042405 | 76 | 43 | 1.0 | 3.0 | 0.00 | 0.00 | 0.00 | 85 | 1014.5 |
| 20260510041904 | 77 | 337 | 2.0 | 3.0 | 0.00 | 0.00 | 0.00 | 85 | 1014.5 |
| 20260510041404 | 77 | 354 | 0.0 | 2.0 | 0.00 | 0.00 | 0.00 | 85 | 1014.6 |
| 20260510040404 | 77 | 45 | 1.0 | 2.0 | 0.00 | 0.00 | 0.00 | 85 | 1014.6 |
| 20260510035905 | 77 | 56 | 1.0 | 3.0 | 0.00 | 0.00 | 0.00 | 85 | 1014.6 |
| 20260510034904 | 76 | 3 | 0.0 | 3.0 | 0.00 | 0.00 | 0.00 | 86 | 1014.7 |
| 20260510033904 | 76 | 311 | 1.0 | 2.0 | 0.00 | 0.00 | 0.00 | 85 | 1014.7 |
| 20260510032903 | 76 | 312 | 2.0 | 3.0 | 0.00 | 0.00 | 0.00 | 85 | 1014.7 |
| 20260510032404 | 77 | 60 | 2.0 | 3.0 | 0.00 | 0.00 | 0.00 | 85 | 1014.8 |
| 20260510031905 | 77 | 320 | 1.0 | 2.0 | 0.00 | 0.00 | 0.00 | 85 | 1014.9 |
| 20260510031404 | 76 | 318 | 0.0 | 1.0 | 0.00 | 0.00 | 0.00 | 85 | 1014.8 |
| 20260510030904 | 76 | 316 | 1.0 | 5.0 | 0.00 | 0.00 | 0.00 | 85 | 1014.8 |
| 20260510024904 | 76 | 305 | 0.0 | 2.0 | 0.00 | 0.00 | 0.00 | 85 | 1015.0 |
| 20260510023904 | 76 | 5 | 1.0 | 3.0 | 0.00 | 0.00 | 0.00 | 85 | 1015.1 |
| 20260510023404 | 76 | 36 | 2.0 | 3.0 | 0.00 | 0.00 | 0.00 | 85 | 1015.2 |
| 20260510022904 | 76 | 279 | 1.0 | 3.0 | 0.00 | 0.00 | 0.00 | 85 | 1015.3 |
| 20260510022405 | 76 | 2 | 0.0 | 2.0 | 0.00 | 0.00 | 0.00 | 85 | 1015.3 |
| 20260510021404 | 76 | 346 | 0.0 | 2.0 | 0.00 | 0.00 | 0.00 | 85 | 1015.5 |
| 20260510020904 | 76 | 306 | 0.0 | 2.0 | 0.00 | 0.00 | 0.00 | 85 | 1015.4 |
| 20260510015904 | 76 | 59 | 3.0 | 6.0 | 0.00 | 0.00 | 0.00 | 85 | 1015.4 |
| 20260510015404 | 76 | 276 | 2.0 | 3.0 | 0.00 | 0.00 | 0.00 | 85 | 1015.3 |
| 20260510014904 | 76 | 5 | 0.0 | 3.0 | 0.00 | 0.00 | 0.00 | 85 | 1015.5 |
| 20260510014404 | 76 | 334 | 1.0 | 3.0 | 0.00 | 0.00 | 0.00 | 85 | 1015.5 |
| 20260510013904 | 76 | 317 | 1.0 | 5.0 | 0.00 | 0.00 | 0.00 | 85 | 1015.4 |
| 20260510013404 | 76 | 46 | 3.0 | 7.0 | 0.00 | 0.00 | 0.00 | 85 | 1015.3 |
| 20260510012904 | 76 | 318 | 1.0 | 2.0 | 0.00 | 0.00 | 0.00 | 85 | 1015.3 |
| 20260510012404 | 76 | 0 | 1.0 | 2.0 | 0.00 | 0.00 | 0.00 | 85 | 1015.3 |
| 20260510011904 | 76 | 345 | 0.0 | 1.0 | 0.00 | 0.00 | 0.00 | 85 | 1015.2 |
| 20260510011404 | 76 | 310 | 0.0 | 2.0 | 0.00 | 0.00 | 0.00 | 85 | 1015.2 |
| 20260510010904 | 76 | 16 | 1.0 | 3.0 | 0.00 | 0.00 | 0.00 | 85 | 1015.2 |
| 20260510005904 | 76 | 293 | 0.0 | 1.0 | 0.00 | 0.00 | 0.00 | 85 | 1015.0 |
| 20260510005404 | 76 | 293 | 0.0 | 1.0 | 0.00 | 0.00 | 0.00 | 85 | 1015.0 |
| 20260510004904 | 76 | 322 | 0.0 | 1.0 | 0.00 | 0.00 | 0.00 | 85 | 1014.9 |
| 20260510004404 | 76 | 341 | 0.0 | 3.0 | 0.00 | 0.00 | 0.00 | 85 | 1014.8 |
| 20260510003904 | 76 | 315 | 2.0 | 3.0 | 0.00 | 0.00 | 0.00 | 85 | 1014.8 |
| 20260510003404 | 76 | 3 | 0.0 | 2.0 | 0.00 | 0.00 | 0.00 | 86 | 1014.7 |
| 20260510002904 | 76 | 66 | 2.0 | 3.0 | 0.00 | 0.00 | 0.00 | 85 | 1014.7 |
| 20260510002405 | 76 | 320 | 0.0 | 2.0 | 0.00 | 0.00 | 0.00 | 85 | 1014.6 |
| 20260510001904 | 76 | 304 | 0.0 | 0.0 | 0.00 | 0.00 | 0.00 | 85 | 1014.6 |
| 20260510001405 | 76 | 266 | 0.0 | 2.0 | 0.00 | 0.00 | 0.00 | 86 | 1014.6 |
| 20260510000904 | 76 | 246 | 1.0 | 2.0 | 0.00 | 0.00 | 0.00 | 86 | 1014.6 |
| 20260510000404 | 76 | 256 | 0.0 | 0.0 | 0.00 | 0.00 | 0.00 | 87 | 1014.5 |
| 20260509235904 | 75 | 246 | 0.0 | 2.0 | 0.00 | 0.01 | 0.00 | 87 | 1014.4 |
| 20260509235405 | 75 | 319 | 0.0 | 2.0 | 0.00 | 0.02 | 0.00 | 87 | 1014.5 |
| 20260509234904 | 75 | 320 | 0.0 | 5.0 | 0.00 | 0.03 | 0.00 | 87 | 1014.5 |
| 20260509234404 | 75 | 45 | 2.0 | 3.0 | 0.00 | 0.04 | 0.00 | 87 | 1014.6 |
| 20260509233904 | 75 | 320 | 1.0 | 3.0 | 0.00 | 0.05 | 0.00 | 87 | 1014.4 |
| 20260509232404 | 75 | 346 | 1.0 | 2.0 | 0.00 | 0.09 | 0.00 | 86 | 1014.2 |
| 20260509231404 | 75 | 4 | 0.0 | 1.0 | 0.00 | 0.11 | 0.00 | 87 | 1014.1 |
| 20260509230904 | 75 | 12 | 1.0 | 2.0 | 0.00 | 0.12 | 0.00 | 87 | 1014.1 |
| 20260509230404 | 75 | 58 | 2.0 | 5.0 | 0.00 | 0.12 | 0.00 | 87 | 1014.0 |
| 20260509225904 | 75 | 332 | 1.0 | 5.0 | 0.00 | 0.13 | 0.00 | 86 | 1014.0 |
| 20260509224904 | 75 | 315 | 0.0 | 3.0 | 0.00 | 0.15 | 0.00 | 87 | 1014.1 |
| 20260509223904 | 75 | 337 | 1.0 | 2.0 | 0.00 | 0.15 | 0.00 | 87 | 1014.0 |
| 20260509223404 | 75 | 48 | 2.0 | 3.0 | 0.00 | 0.16 | 0.00 | 87 | 1013.8 |
| 20260509222904 | 75 | 354 | 0.0 | 3.0 | 0.00 | 0.16 | 0.00 | 87 | 1013.6 |
| 20260509222404 | 75 | 335 | 1.0 | 3.0 | 0.00 | 0.16 | 0.00 | 87 | 1013.5 |
| 20260509221904 | 75 | 44 | 1.0 | 5.0 | 0.00 | 0.16 | 0.00 | 87 | 1013.6 |
| 20260509221404 | 75 | 63 | 1.0 | 3.0 | 0.00 | 0.16 | 0.00 | 87 | 1013.6 |
| 20260509220904 | 75 | 6 | 1.0 | 3.0 | 0.00 | 0.16 | 0.00 | 87 | 1013.6 |
| 20260509220404 | 75 | 3 | 0.0 | 3.0 | 0.00 | 0.16 | 0.00 | 87 | 1013.6 |
| 20260509215904 | 75 | 26 | 1.0 | 3.0 | 0.00 | 0.17 | 0.00 | 87 | 1013.6 |
| 20260509214904 | 75 | 42 | 1.0 | 3.0 | 0.00 | 0.17 | 0.00 | 87 | 1013.4 |
| 20260509214404 | 75 | 334 | 1.0 | 3.0 | 0.00 | 0.17 | 0.00 | 87 | 1013.4 |
| 20260509213904 | 75 | 351 | 0.0 | 3.0 | 0.00 | 0.17 | 0.00 | 87 | 1013.3 |
| 20260509213404 | 75 | 350 | 2.0 | 3.0 | 0.00 | 0.17 | 0.00 | 87 | 1013.2 |
| 20260509212404 | 75 | 48 | 2.0 | 7.0 | 0.00 | 0.17 | 0.00 | 87 | 1013.1 |
| 20260509211404 | 75 | 31 | 2.0 | 5.0 | 0.00 | 0.17 | 0.00 | 86 | 1013.0 |
| 20260509210904 | 75 | 335 | 1.0 | 5.0 | 0.00 | 0.17 | 0.00 | 87 | 1013.1 |
| 20260509210404 | 75 | 333 | 1.0 | 5.0 | 0.00 | 0.17 | 0.00 | 87 | 1012.9 |
| 20260509205904 | 75 | 45 | 2.0 | 6.0 | 0.00 | 0.18 | 0.00 | 86 | 1012.8 |
| 20260509205404 | 75 | 7 | 1.0 | 3.0 | 0.00 | 0.18 | 0.00 | 87 | 1013.0 |
| 20260509204904 | 75 | 335 | 1.0 | 3.0 | 0.00 | 0.18 | 0.00 | 87 | 1013.0 |
| 20260509204404 | 75 | 42 | 2.0 | 3.0 | 0.00 | 0.19 | 0.00 | 87 | 1013.0 |
| 20260509203904 | 75 | 341 | 2.0 | 3.0 | 0.00 | 0.19 | 0.00 | 87 | 1012.9 |
| 20260509203403 | 75 | 56 | 1.0 | 3.0 | 0.00 | 0.20 | 0.00 | 87 | 1012.9 |
| 20260509202904 | 75 | 46 | 3.0 | 5.0 | 0.00 | 0.21 | 0.00 | 86 | 1012.8 |
| 20260509202404 | 75 | 26 | 1.0 | 3.0 | 0.00 | 0.21 | 0.00 | 86 | 1012.8 |
| 20260509201904 | 75 | 59 | 2.0 | 5.0 | 0.00 | 0.22 | 0.00 | 86 | 1012.9 |
| 20260509201404 | 75 | 349 | 0.0 | 2.0 | 0.00 | 0.23 | 0.00 | 87 | 1012.9 |
| 20260509200904 | 75 | 52 | 2.0 | 3.0 | 0.00 | 0.23 | 0.00 | 86 | 1012.9 |
| 20260509195904 | 75 | 56 | 2.0 | 7.0 | 0.00 | 0.23 | 0.00 | 86 | 1012.8 |
| 20260509195404 | 75 | 55 | 2.0 | 3.0 | 0.00 | 0.24 | 0.00 | 86 | 1012.9 |
| 20260509194904 | 75 | 18 | 0.0 | 5.0 | 0.00 | 0.24 | 0.00 | 86 | 1012.8 |
| 20260509194404 | 75 | 54 | 1.0 | 3.0 | 0.00 | 0.25 | 0.00 | 86 | 1012.7 |
| 20260509193904 | 75 | 42 | 0.0 | 2.0 | 0.00 | 0.25 | 0.00 | 86 | 1012.8 |
| 20260509193404 | 75 | 54 | 1.0 | 3.0 | 0.00 | 0.26 | 0.00 | 86 | 1012.7 |
| 20260509192904 | 75 | 15 | 0.0 | 0.0 | 0.00 | 0.27 | 0.00 | 87 | 1012.8 |
| 20260509192404 | 75 | 52 | 1.0 | 3.0 | 0.00 | 0.28 | 0.00 | 87 | 1012.8 |
| 20260509191904 | 75 | 36 | 2.0 | 3.0 | 0.00 | 0.30 | 0.00 | 87 | 1013.0 |
| 20260509191404 | 75 | 21 | 2.0 | 3.0 | 0.00 | 0.33 | 0.00 | 87 | 1013.2 |
| 20260509190904 | 75 | 58 | 2.0 | 3.0 | 0.00 | 0.36 | 0.00 | 87 | 1013.2 |
| 20260509190404 | 75 | 346 | 2.0 | 3.0 | 0.00 | 0.39 | 0.00 | 86 | 1013.1 |
| 20260509185904 | 75 | 39 | 0.0 | 2.0 | 0.00 | 0.41 | 0.00 | 86 | 1013.1 |
| 20260509185404 | 75 | 353 | 2.0 | 3.0 | 0.00 | 0.43 | 0.00 | 86 | 1013.1 |
| 20260509184404 | 75 | 346 | 1.0 | 3.0 | 0.00 | 0.47 | 0.00 | 86 | 1013.1 |
| 20260509183904 | 75 | 25 | 1.0 | 2.0 | 0.00 | 0.51 | 0.00 | 86 | 1013.1 |
| 20260509183404 | 75 | 337 | 1.0 | 2.0 | 0.00 | 0.58 | 0.00 | 86 | 1013.3 |
| 20260509182905 | 75 | 341 | 0.0 | 3.0 | 0.00 | 0.62 | 0.00 | 87 | 1013.3 |
| 20260509182404 | 75 | 34 | 1.0 | 2.0 | 0.00 | 0.64 | 0.00 | 87 | 1013.3 |
| 20260509181904 | 75 | 62 | 1.0 | 3.0 | 0.00 | 0.68 | 0.00 | 87 | 1013.3 |
| 20260509181404 | 75 | 52 | 2.0 | 6.0 | 0.00 | 0.70 | 0.00 | 87 | 1013.3 |
| 20260509175904 | 76 | 11 | 0.0 | 2.0 | 0.00 | 0.76 | 0.00 | 86 | 1013.3 |
| 20260509175404 | 75 | 355 | 1.0 | 2.0 | 0.00 | 0.79 | 0.00 | 86 | 1013.4 |
| 20260509174904 | 75 | 1 | 2.0 | 5.0 | 0.00 | 0.84 | 0.00 | 86 | 1013.4 |
| 20260509174404 | 75 | 341 | 0.0 | 3.0 | 0.00 | 0.89 | 0.00 | 86 | 1013.4 |
| 20260509173404 | 75 | 42 | 3.0 | 7.0 | 0.00 | 0.93 | 0.00 | 86 | 1013.4 |
| 20260509172404 | 76 | 60 | 4.0 | 7.0 | 0.00 | 0.94 | 0.00 | 85 | 1013.5 |
| 20260509171904 | 76 | 37 | 2.0 | 3.0 | 0.00 | 0.94 | 0.00 | 86 | 1013.5 |
| 20260509171404 | 76 | 62 | 1.0 | 3.0 | 0.00 | 0.96 | 0.00 | 85 | 1013.5 |
| 20260509170404 | 76 | 306 | 0.0 | 0.0 | 0.00 | 0.97 | 0.00 | 85 | 1013.5 |
| 20260509165904 | 76 | 306 | 0.0 | 1.0 | 0.00 | 0.97 | 0.00 | 85 | 1013.6 |
| 20260509165404 | 76 | 297 | 0.0 | 0.0 | 0.00 | 0.98 | 0.00 | 85 | 1013.7 |
| 20260509164904 | 76 | 297 | 0.0 | 1.0 | 0.00 | 1.00 | 0.00 | 85 | 1013.8 |
| 20260509164404 | 76 | 240 | 1.0 | 3.0 | 0.00 | 1.01 | 0.00 | 85 | 1013.9 |
| 20260509163904 | 76 | 297 | 0.0 | 1.0 | 0.00 | 1.03 | 0.00 | 85 | 1014.0 |
| 20260509163404 | 76 | 306 | 0.0 | 1.0 | 0.00 | 1.04 | 0.00 | 85 | 1014.1 |
| 20260509162904 | 76 | 306 | 0.0 | 0.0 | 0.00 | 1.06 | 0.00 | 85 | 1014.2 |
| 20260509162404 | 76 | 298 | 0.0 | 2.0 | 0.00 | 1.09 | 0.00 | 85 | 1014.2 |
| 20260509161904 | 76 | 287 | 0.0 | 1.0 | 0.00 | 1.12 | 0.00 | 85 | 1014.3 |
| 20260509161404 | 76 | 309 | 0.0 | 2.0 | 0.00 | 1.15 | 0.00 | 85 | 1014.4 |
| 20260509155904 | 76 | 285 | 0.0 | 2.0 | 0.00 | 1.29 | 1.29 | 85 | 1014.8 |
| 20260509155404 | 76 | 268 | 0.0 | 1.0 | 0.00 | 1.38 | 1.29 | 85 | 1014.9 |
| 20260509154904 | 76 | 251 | 0.0 | 3.0 | 0.00 | 1.47 | 1.29 | 85 | 1015.0 |
| 20260509154404 | 76 | 305 | 0.0 | 1.0 | 0.00 | 1.56 | 1.29 | 85 | 1015.1 |
| 20260509153904 | 76 | 298 | 0.0 | 2.0 | 0.00 | 1.62 | 1.29 | 85 | 1015.1 |
| 20260509153404 | 76 | 302 | 0.0 | 2.0 | 0.00 | 1.68 | 1.29 | 85 | 1015.0 |
| 20260509152904 | 76 | 277 | 0.0 | 2.0 | 0.00 | 1.79 | 1.29 | 85 | 1015.0 |
| 20260509152404 | 76 | 329 | 1.0 | 2.0 | 0.00 | 1.86 | 1.29 | 86 | 1014.9 |
| 20260509151404 | 76 | 344 | 0.0 | 3.0 | 0.00 | 1.88 | 1.29 | 85 | 1014.8 |
| 20260509150904 | 76 | 34 | 0.0 | 2.0 | 0.00 | 1.88 | 1.29 | 85 | 1014.8 |
| 20260509145904 | 76 | 252 | 0.0 | 2.0 | 0.00 | 1.88 | 1.29 | 85 | 1014.8 |
| 20260509145404 | 76 | 11 | 1.0 | 2.0 | 0.00 | 1.88 | 1.29 | 85 | 1014.8 |
| 20260509144405 | 76 | 7 | 0.0 | 3.0 | 0.00 | 1.88 | 1.29 | 85 | 1014.9 |
| 20260509143904 | 76 | 288 | 0.0 | 1.0 | 0.00 | 1.88 | 1.29 | 85 | 1014.9 |
| 20260509142904 | 76 | 309 | 0.0 | 2.0 | 0.00 | 1.88 | 1.29 | 85 | 1014.8 |
| 20260509142404 | 76 | 332 | 0.0 | 1.0 | 0.00 | 1.88 | 1.29 | 85 | 1014.8 |
| 20260509141904 | 76 | 327 | 0.0 | 2.0 | 0.00 | 1.88 | 1.29 | 85 | 1014.9 |
| 20260509140904 | 76 | 9 | 1.0 | 3.0 | 0.00 | 1.88 | 1.29 | 84 | 1015.0 |
| 20260509140404 | 76 | 298 | 0.0 | 0.0 | 0.00 | 1.88 | 1.29 | 85 | 1015.0 |
| 20260509135904 | 76 | 299 | 0.0 | 0.0 | 0.00 | 1.88 | 1.29 | 85 | 1015.0 |
| 20260509135404 | 76 | 61 | 0.0 | 0.0 | 0.00 | 1.88 | 1.29 | 85 | 1014.9 |
| 20260509134904 | 76 | 63 | 1.0 | 3.0 | 0.00 | 1.88 | 1.29 | 85 | 1014.9 |
| 20260509133904 | 76 | 53 | 3.0 | 5.0 | 0.00 | 1.88 | 1.29 | 85 | 1015.1 |
| 20260509133404 | 76 | 2 | 2.0 | 5.0 | 0.00 | 1.88 | 1.29 | 85 | 1015.0 |
| 20260509131405 | 76 | 314 | 0.0 | 2.0 | 0.00 | 1.88 | 1.29 | 85 | 1014.9 |
| 20260509130404 | 76 | 308 | 0.0 | 1.0 | 0.00 | 1.88 | 1.29 | 85 | 1014.8 |
| 20260509125904 | 76 | 341 | 0.0 | 1.0 | 0.00 | 1.88 | 1.29 | 85 | 1014.6 |
| 20260509125403 | 76 | 237 | 0.0 | 2.0 | 0.00 | 1.88 | 1.29 | 85 | 1014.5 |
| 20260509124904 | 76 | 282 | 0.0 | 1.0 | 0.00 | 1.88 | 1.29 | 85 | 1014.5 |
| 20260509124404 | 76 | 281 | 0.0 | 0.0 | 0.00 | 1.88 | 1.29 | 85 | 1014.4 |
| 20260509123904 | 76 | 191 | 1.0 | 3.0 | 0.00 | 1.88 | 1.29 | 85 | 1014.4 |
| 20260509123404 | 76 | 273 | 0.0 | 2.0 | 0.00 | 1.88 | 1.29 | 85 | 1014.4 |
| 20260509122904 | 76 | 300 | 0.0 | 1.0 | 0.00 | 1.88 | 1.29 | 85 | 1014.3 |
| 20260509122404 | 76 | 311 | 0.0 | 1.0 | 0.00 | 1.88 | 1.29 | 85 | 1014.3 |
| 20260509121904 | 76 | 308 | 0.0 | 1.0 | 0.00 | 1.88 | 1.29 | 85 | 1014.2 |
| 20260509120904 | 76 | 292 | 0.0 | 2.0 | 0.00 | 1.88 | 1.29 | 85 | 1013.8 |
| 20260509120404 | 76 | 316 | 0.0 | 1.0 | 0.00 | 1.88 | 1.29 | 85 | 1013.9 |
| 20260509115904 | 76 | 318 | 0.0 | 2.0 | 0.00 | 1.88 | 1.29 | 85 | 1013.8 |
| 20260509115404 | 76 | 343 | 0.0 | 2.0 | 0.00 | 1.88 | 1.29 | 85 | 1013.8 |
| 20260509114904 | 76 | 306 | 0.0 | 1.0 | 0.00 | 1.88 | 1.29 | 85 | 1013.8 |
| 20260509114404 | 76 | 306 | 0.0 | 1.0 | 0.00 | 1.88 | 1.29 | 85 | 1013.8 |
| 20260509113904 | 76 | 352 | 0.0 | 3.0 | 0.00 | 1.88 | 1.29 | 85 | 1013.7 |
| 20260509113405 | 76 | 346 | 0.0 | 1.0 | 0.00 | 1.88 | 1.29 | 85 | 1013.6 |
| 20260509112904 | 76 | 258 | 1.0 | 2.0 | 0.00 | 1.88 | 1.29 | 85 | 1013.6 |
| 20260509111904 | 76 | 265 | 1.0 | 3.0 | 0.00 | 1.88 | 1.29 | 85 | 1013.6 |
| 20260509111404 | 76 | 55 | 2.0 | 3.0 | 0.00 | 1.88 | 1.29 | 85 | 1013.7 |
| 20260509110404 | 76 | 320 | 0.0 | 1.0 | 0.00 | 1.88 | 1.29 | 85 | 1013.7 |
| 20260509105904 | 76 | 58 | 0.0 | 3.0 | 0.00 | 1.88 | 1.29 | 86 | 1013.7 |
| 20260509104904 | 76 | 53 | 2.0 | 5.0 | 0.00 | 1.88 | 1.29 | 85 | 1013.6 |
| 20260509104404 | 76 | 3 | 0.0 | 2.0 | 0.00 | 1.88 | 1.29 | 86 | 1013.6 |
| 20260509103904 | 76 | 350 | 1.0 | 2.0 | 0.00 | 1.88 | 1.29 | 85 | 1013.7 |
| 20260509103404 | 76 | 294 | 0.0 | 3.0 | 0.00 | 1.88 | 1.29 | 85 | 1013.6 |
| 20260509102904 | 76 | 297 | 0.0 | 1.0 | 0.00 | 1.88 | 1.29 | 85 | 1013.7 |
| 20260509101403 | 76 | 306 | 0.0 | 2.0 | 0.00 | 1.88 | 1.29 | 85 | 1013.3 |
| 20260509100904 | 76 | 348 | 0.0 | 1.0 | 0.00 | 1.88 | 1.29 | 85 | 1013.4 |
| 20260509095904 | 76 | 327 | 0.0 | 3.0 | 0.00 | 1.88 | 1.29 | 85 | 1013.3 |
| 20260509095404 | 76 | 277 | 0.0 | 3.0 | 0.00 | 1.88 | 1.29 | 85 | 1013.4 |
| 20260509094904 | 76 | 57 | 0.0 | 2.0 | 0.00 | 1.88 | 1.29 | 86 | 1013.4 |
| 20260509094404 | 75 | 57 | 1.0 | 7.0 | 0.00 | 1.88 | 1.29 | 85 | 1013.5 |
| 20260509093904 | 75 | 344 | 2.0 | 8.0 | 0.00 | 1.88 | 1.29 | 85 | 1013.5 |
| 20260509093404 | 75 | 8 | 3.0 | 8.0 | 0.00 | 1.88 | 1.29 | 85 | 1013.4 |
| 20260509092904 | 75 | 23 | 2.0 | 9.0 | 0.00 | 1.88 | 1.29 | 85 | 1013.4 |
| 20260509092404 | 76 | 59 | 3.0 | 12.0 | 0.00 | 1.88 | 1.29 | 85 | 1013.3 |
| 20260509091903 | 76 | 53 | 3.0 | 6.0 | 0.00 | 1.88 | 1.29 | 85 | 1013.2 |
| 20260509091404 | 76 | 53 | 2.0 | 6.0 | 0.00 | 1.88 | 1.29 | 85 | 1013.1 |
| 20260509090904 | 75 | 345 | 4.0 | 8.0 | 0.00 | 1.88 | 1.29 | 85 | 1013.1 |
| 20260509090404 | 75 | 35 | 5.0 | 8.0 | 0.00 | 1.88 | 1.29 | 85 | 1013.2 |
| 20260509085904 | 76 | 42 | 4.0 | 7.0 | 0.00 | 1.88 | 1.29 | 85 | 1013.1 |
| 20260509085404 | 76 | 33 | 2.0 | 7.0 | 0.00 | 1.88 | 1.29 | 85 | 1013.0 |
| 20260509084904 | 76 | 11 | 3.0 | 7.0 | 0.00 | 1.88 | 1.29 | 85 | 1013.0 |
| 20260509084404 | 76 | 31 | 3.0 | 8.0 | 0.00 | 1.88 | 1.29 | 85 | 1013.0 |
| 20260509083404 | 76 | 31 | 3.0 | 8.0 | 0.00 | 1.88 | 1.29 | 84 | 1012.9 |
| 20260509082904 | 76 | 341 | 3.0 | 7.0 | 0.00 | 1.88 | 1.29 | 84 | 1012.8 |
| 20260509082404 | 77 | 41 | 1.0 | 5.0 | 0.00 | 1.88 | 1.29 | 84 | 1012.9 |
| 20260509081404 | 76 | 287 | 0.0 | 5.0 | 0.00 | 1.88 | 1.29 | 84 | 1013.1 |
| 20260509080904 | 76 | 314 | 1.0 | 3.0 | 0.00 | 1.88 | 1.29 | 85 | 1013.1 |
| 20260509080404 | 76 | 50 | 2.0 | 5.0 | 0.00 | 1.88 | 1.29 | 85 | 1013.1 |
| 20260509075905 | 76 | 357 | 1.0 | 3.0 | 0.00 | 1.88 | 1.29 | 86 | 1013.2 |
| 20260509075404 | 76 | 35 | 5.0 | 10.0 | 0.00 | 1.88 | 1.29 | 85 | 1013.2 |
| 20260509074904 | 76 | 33 | 2.0 | 7.0 | 0.00 | 1.88 | 1.29 | 85 | 1013.2 |
| 20260509074403 | 76 | 40 | 1.0 | 9.0 | 0.00 | 1.88 | 1.29 | 86 | 1013.2 |
| 20260509073904 | 76 | 59 | 4.0 | 9.0 | 0.00 | 1.88 | 1.29 | 85 | 1013.3 |
| 20260509073404 | 76 | 49 | 2.0 | 7.0 | 0.00 | 1.88 | 1.29 | 85 | 1013.4 |
| 20260509072904 | 76 | 51 | 2.0 | 6.0 | 0.00 | 1.88 | 1.29 | 85 | 1013.4 |
| 20260509072404 | 76 | 41 | 2.0 | 3.0 | 0.00 | 1.88 | 1.29 | 86 | 1013.4 |
| 20260509071904 | 76 | 51 | 2.0 | 9.0 | 0.00 | 1.88 | 1.29 | 86 | 1013.4 |
| 20260509070903 | 76 | 37 | 1.0 | 7.0 | 0.00 | 1.88 | 1.29 | 87 | 1013.5 |
| 20260509070404 | 75 | 8 | 3.0 | 9.0 | 0.00 | 1.88 | 1.29 | 86 | 1013.5 |
| 20260509065904 | 75 | 62 | 4.0 | 8.0 | 0.00 | 1.88 | 1.29 | 86 | 1013.5 |
| 20260509064904 | 76 | 46 | 3.0 | 8.0 | 0.00 | 1.88 | 1.29 | 86 | 1013.6 |
| 20260509063904 | 75 | 37 | 3.0 | 8.0 | 0.00 | 1.88 | 1.29 | 87 | 1013.6 |
| 20260509063404 | 75 | 64 | 5.0 | 8.0 | 0.00 | 1.88 | 1.29 | 87 | 1013.6 |
| 20260509062904 | 75 | 45 | 5.0 | 9.0 | 0.00 | 1.88 | 1.29 | 87 | 1013.7 |
| 20260509061404 | 75 | 54 | 4.0 | 12.0 | 0.00 | 1.88 | 1.29 | 88 | 1013.8 |
| 20260509060404 | 76 | 51 | 5.0 | 10.0 | 0.00 | 1.88 | 1.29 | 86 | 1014.1 |
| 20260509055904 | 76 | 60 | 2.0 | 5.0 | 0.00 | 1.88 | 1.29 | 85 | 1014.1 |
| 20260509055404 | 76 | 58 | 1.0 | 6.0 | 0.00 | 1.88 | 1.29 | 86 | 1014.1 |